weather.gov     
National Weather Service

Terminal Aerodrome Forecast
NWS Homepage
This page is being discontinued on March 12, 2014.
The same data is available at this site. Please update your bookmarks.
Thank you, and we apologize for the inconvenience.
Please send an email to SR-SRH.Webmaster@noaa.gov with any concerns.


Current Version
Previous Version:    01  02  03  04  05  06  07  08  09  10  11  12  13  14  
[Printable]
758
FTUS41 KBOX 280123 AAA
TAFORH
TAF AMD
KORH 280123Z 2801/2824 32005KT 2SM -SHRA BKN060
     FM280300 32005KT P6SM BKN060
     FM280600 32005KT P6SM SCT120
     FM281300 35009KT P6SM FEW060=


758
FTUS41 KBOX 280123 AAA
TAFORH
TAF AMD
KORH 280123Z 2801/2824 32005KT 2SM -SHRA BKN060
     FM280300 32005KT P6SM BKN060
     FM280600 32005KT P6SM SCT120
     FM281300 35009KT P6SM FEW060=




U.S. Dept. of Commerce
NOAA National Weather Service
1325 East West Highway
Silver Spring, MD 20910
E-mail: w-nws.webmaster@noaa.gov
Page last modified: May 16, 2007
NATIONAL WEATHER SERVICE: for Safety, for Work, for Fun - FOR LIFE